Location: Tierra del Sol
(32.6128°N, 116.3319°W)
Time: 04:44:23
(UTC-08:00)

Hubble Space Telescope - Pass Details

Date: 07 October 2017
Orbit: 537 x 541 km, 28.5° (Epoch: 15 December)

Event Time Altitude Azimuth Distance (km) Brightness Sun altitude
Exits shadow 05:47:59 18° 250° (WSW) 1,351 2.2 -12.6°
Maximum altitude 05:50:37 40° 189° (S) 800 1.5 -12.0°
Drops below altitude 10° 05:54:30 10° 119° (ESE) 1,787 4.4 -11.2°
Sets 05:56:51 0° 112° (ESE) 2,678 5.8 -10.7°
